GFSSGP_con_lsi_150.txt.gz
Lid_Strength_Index
2 2 1 3 7 7 9 8 6 7 6 5 5 6 8 7 9 13 2 1 2 3 3 3 2 1 1 0 -0 -1 -0 -1 -1 -1 -1 -1 -1 -1 -1 -1 -1 -1 -1 -1 -1 -1 -1 -1 -2
3 2 2 4 8 10 9 7 7 7 5 4 4 5 6 8 4 4 4 2 3 5 5 5 4 3 2 2 1 1 0 -0 -1 -1 -1 -1 -1 -1 -1 -1 -1 -1 -1 -1 -1 -1 -1 -1 -1
2 2 4 6 8 10 10 7 6 5 4 4 5 6 6 8 4 5 4 3 4 5 6 5 3 3 3 3 3 3 2 1 -0 -1 -1 -1 -1 -1 -1 -1 -1 -1 -1 -1 -1 -1 -1 -1 -1
4 3 4 8 9 8 8 7 6 5 4 4 5 7 5 2 3 5 5 5 4 2 2 2 1 1 1 1 2 3 4 3 2 1 -0 -1 -1 -1 -1 -1 -1 -1 -1 -1 -1 -1 -1 -0 -0
4 5 7 8 8 8 7 6 6 6 5 5 5 7 7 3 3 5 5 4 3 2 2 1 -0 -0 1 0 0 0 1 3 3 3 2 2 1 -0 -1 -1 -1 -1 -1 -1 -1 -1 -0 -0 -0
7 5 9 10 8 8 7 6 5 5 5 5 6 7 6 4 4 5 3 3 2 2 2 2 0 -0 -0 1 1 1 1 0 -0 0 2 3 2 0 -1 -1 -1 -1 -1 -1 -1 -1 -0 0 -0
7 7 8 8 8 8 8 6 6 5 5 6 5 7 6 5 4 3 3 2 2 2 2 2 2 2 1 -0 0 -1 -1 -1 -1 -2 -2 -1 2 1 -0 -1 -1 -1 -1 -1 -1 -1 -0 -0 -0
6 7 8 8 8 9 7 6 6 6 7 4 4 7 7 5 4 3 3 2 2 2 2 2 2 2 1 1 -1 -1 -2 -2 -2 -2 -2 -2 -3 -1 1 0 -0 -0 -1 -1 -1 -0 -0 -0 0
5 9 9 8 8 9 7 8 6 6 6 6 5 5 4 4 3 3 3 3 2 2 2 1 2 2 2 1 1 -0 -1 -2 -1 -1 -2 -0 -0 -1 -1 -2 -1 -1 -1 -1 -1 -1 -0 0 0
7 8 9 8 7 8 7 7 7 7 7 7 6 5 4 4 4 4 4 4 4 3 3 3 2 2 2 3 2 1 2 1 1 1 1 1 1 0 -1 -2 -3 -3 -1 -0 -0 -0 0 -0 -0
6 8 7 7 8 7 7 7 6 7 8 7 6 5 5 4 4 5 5 5 5 4 4 4 3 3 3 3 2 3 2 2 2 1 2 1 2 1 1 1 0 -0 -2 -1 -0 -0 -0 -0 -0
8 6 7 7 7 7 7 6 7 6 6 5 5 5 5 5 5 5 5 5 5 4 4 4 4 4 3 3 3 3 3 3 3 3 2 2 2 3 2 2 1 1 0 -0 -0 0 -0 0 0
8 7 7 6 7 7 6 7 7 7 6 5 5 5 6 5 5 5 5 5 5 5 4 4 4 4 4 4 4 4 4 4 3 3 2 3 3 3 3 3 3 2 1 1 0 1 0 0 0
7 7 8 7 7 6 7 7 7 7 5 6 6 6 5 5 5 5 5 5 5 5 5 4 4 4 4 5 5 5 4 4 4 4 4 3 3 4 4 4 4 3 3 2 2 1 1 1 0
8 9 8 7 7 8 7 8 8 6 6 6 6 6 6 6 5 6 6 6 5 5 5 5 5 4 5 5 5 5 5 4 5 4 4 4 4 4 4 5 5 4 3 3 3 2 1 2 0
9 9 11 8 8 8 8 10 8 6 7 7 6 6 6 6 6 6 6 6 6 6 6 5 5 5 5 5 4 5 5 5 5 5 5 4 4 5 5 5 5 4 4 4 3 3 3 2 2
9 11 10 9 7 8 9 10 8 6 7 7 7 7 7 7 7 7 6 6 6 6 5 5 5 5 5 4 5 5 5 5 5 5 6 5 5 5 6 7 7 6 6 6 5 4 3 3 2
11 10 9 9 8 8 9 9 8 8 8 8 7 7 8 8 8 7 6 6 6 6 5 5 5 5 5 5 5 5 5 5 5 5 5 5 6 6 7 7 7 7 7 7 6 6 4 4 2
9 10 11 9 7 8 9 9 8 7 7 7 7 7 7 7 7 6 6 6 6 5 6 6 6 5 5 6 6 6 7 6 6 6 7 7 7 7 8 8 8 7 8 7 7 7 7 6 4
10 11 11 9 8 8 9 9 7 6 7 7 7 7 6 7 7 7 6 6 6 6 6 6 6 5 5 6 6 6 6 7 7 7 8 8 8 8 8 8 7 7 7 7 7 7 7 7 6
11 11 11 11 9 8 9 11 9 7 7 7 6 6 6 7 7 7 7 6 6 6 6 6 6 5 5 5 6 7 7 7 8 9 8 8 8 8 8 8 8 8 8 7 7 6 6 7 6
12 9 10 10 11 14 9 14 10 8 8 8 7 7 7 6 6 6 6 6 6 6 5 6 5 5 5 5 7 8 9 10 9 9 9 9 9 9 9 9 9 9 9 9 8 7 6 6 7
11 9 10 10 12 12 12 12 11 8 9 8 8 7 6 6 6 6 6 6 6 6 6 6 6 6 6 6 7 8 9 8 9 9 10 10 10 9 10 10 10 10 10 9 9 8 8 7 6
8 10 10 10 11 15 11 11 12 10 8 8 7 6 6 6 6 6 6 6 7 7 7 7 7 8 7 7 7 8 9 10 10 10 11 11 11 11 10 10 11 11 10 10 9 9 8 7 7
9 11 14 15 15 16 10 12 11 8 7 7 7 6 6 6 6 6 7 7 7 9 9 8 8 9 8 8 7 8 10 10 10 11 11 11 12 12 12 11 12 12 11 11 10 9 8 7 7
10 11 14 18 17 15 11 14 11 7 6 5 5 5 5 6 6 7 8 7 8 11 11 10 10 10 10 9 8 9 10 10 11 11 11 12 12 12 11 12 12 12 11 11 11 9 8 7 6
11 13 9 12 11 15 13 10 9 7 7 6 6 6 7 6 6 8 8 7 8 12 12 10 10 11 10 9 9 10 10 11 11 11 11 12 11 11 12 12 13 13 13 12 12 11 10 8 5
10 8 12 11 17 18 14 13 14 12 9 8 10 7 6 5 6 10 9 8 8 12 11 11 11 12 11 10 10 11 11 11 11 12 12 12 12 12 12 13 13 14 13 13 13 12 12 11 10
10 11 10 10 12 16 18 15 9 11 10 10 10 9 7 6 8 7 11 8 9 11 11 12 12 12 12 11 11 12 12 12 12 12 12 12 12 13 13 13 13 14 14 14 14 13 12 12 11
9 10 9 14 14 13 15 16 7 7 8 7 8 9 9 6 10 9 9 10 10 10 11 12 12 13 12 11 11 12 12 12 12 13 13 13 13 13 14 14 14 15 14 15 15 14 13 14 13

GFSSGP_con_lsi_153.txt.gz
Lid_Strength_Index
3 6 6 5 11 12 14 12 10 8 8 6 6 8 9 8 10 13 2 2 4 5 5 4 2 1 1 0 0 -0 -1 -1 -1 -1 -1 -1 -1 -1 -1 -1 -1 -1 -1 -1 -1 -1 -1 -1 -1
4 5 6 8 12 15 14 9 9 8 6 6 6 5 7 9 5 4 4 4 6 7 5 5 3 3 2 2 2 1 1 -0 -1 -1 -1 -1 -1 -1 -1 -1 -1 -1 -1 -1 -1 -1 -1 -1 -1
4 4 9 10 13 14 14 9 9 7 6 6 9 7 7 6 5 6 4 5 7 7 5 4 1 -0 0 0 0 1 2 2 1 0 -0 -1 -1 -1 -1 -1 -1 -1 -1 -1 -1 -2 -1 -1 -0
7 8 8 12 13 12 11 9 7 8 7 7 7 8 5 3 5 7 5 6 6 5 4 1 -0 -1 -0 0 -0 -0 -0 0 2 2 2 1 -0 -1 -1 -1 -1 -1 -1 -2 -2 -1 -1 -0 0
9 10 12 13 13 11 10 9 8 8 9 8 7 9 7 4 4 7 7 5 4 4 4 2 -0 -1 0 0 0 0 0 -0 -1 -1 -1 2 2 0 -1 -1 -1 -1 -1 -1 -1 -1 -1 -0 0
11 10 14 16 12 11 10 10 7 7 7 7 7 8 8 5 6 6 4 5 4 4 4 3 1 1 0 -0 -1 -1 -1 -1 -2 -3 -2 -2 -0 1 1 -1 -1 -1 -1 -1 -1 -1 -1 -0 0
11 13 14 13 11 12 10 9 8 8 8 8 6 8 8 6 4 4 4 4 4 4 4 4 4 2 1 0 -0 -1 -2 -3 -3 -2 -2 -1 -2 -2 -0 1 -1 -0 -1 -1 -1 -1 -0 -0 -0
11 12 14 14 12 13 9 9 9 8 8 5 6 8 9 6 4 4 4 4 5 4 4 5 5 4 4 4 0 -1 -1 -1 -1 -2 -0 0 -0 -1 -1 -2 -0 1 0 -2 -1 -1 -0 -0 -0
9 13 15 14 12 13 10 10 8 7 7 7 6 6 6 5 4 5 5 6 5 5 5 5 5 5 5 4 3 2 1 1 1 1 1 2 2 2 1 -1 -2 -2 -2 -2 -1 -1 -0 0 -0
11 13 13 11 11 11 9 9 8 8 8 8 8 6 5 5 5 7 7 7 7 6 6 6 6 6 5 4 5 5 4 4 4 4 4 3 3 3 2 1 -0 -1 -1 -2 -2 -1 -0 -0 -0
11 13 11 10 9 9 11 11 9 9 9 8 8 7 6 6 7 7 7 7 7 7 6 6 6 6 6 6 5 5 5 4 4 5 4 4 4 4 3 3 3 3 1 2 1 0 -1 -0 0
12 10 9 10 9 10 10 9 8 8 8 6 6 6 6 7 7 7 8 8 8 7 7 6 7 6 6 6 6 6 5 5 5 5 5 5 6 6 5 4 4 4 3 4 3 2 1 -0 -0
12 11 9 10 9 9 7 10 9 9 7 6 6 6 7 8 8 7 8 8 8 7 7 7 6 6 6 6 6 6 6 6 6 6 5 5 6 6 5 5 5 5 4 4 4 3 3 2 2
10 10 10 10 10 10 10 10 9 8 7 7 7 8 8 8 8 8 8 9 8 7 7 7 6 6 7 7 7 7 8 7 7 7 6 6 6 7 7 6 6 6 6 5 5 5 4 3 2
9 11 11 10 10 11 10 13 12 8 7 8 8 9 8 8 8 9 9 9 9 8 8 7 7 8 8 8 8 8 7 7 8 7 7 7 7 8 8 8 8 8 8 8 7 6 5 4 3
11 12 14 11 10 11 11 14 11 9 9 9 9 8 8 8 8 9 9 9 9 9 9 8 7 8 8 8 8 8 8 8 8 8 8 8 8 8 8 9 9 8 9 8 8 8 7 6 5
12 15 13 12 11 11 13 14 11 10 9 10 11 10 10 10 10 9 9 9 9 9 8 8 8 8 8 8 8 8 8 8 8 8 9 9 8 8 9 9 9 9 9 9 8 8 7 8 7
14 14 15 15 13 12 13 13 11 10 10 10 11 11 10 10 10 8 8 8 9 9 9 9 8 8 8 8 8 9 9 8 9 9 9 9 9 9 9 9 8 8 8 8 8 8 7 8 8
12 13 14 13 10 11 12 13 12 10 10 11 11 11 10 10 9 9 9 9 9 9 9 9 9 8 9 9 9 10 10 9 9 9 9 9 9 9 10 9 9 9 9 8 7 7 7 7 7
12 13 14 12 10 11 13 13 11 10 9 10 10 10 10 10 10 9 9 9 9 9 9 9 9 9 9 9 10 10 10 9 9 9 9 9 10 10 9 9 10 10 9 9 9 8 8 7 7
13 14 13 13 12 12 13 15 13 10 9 9 9 9 9 9 10 9 9 10 10 10 10 9 9 9 8 9 9 10 10 10 10 10 10 10 10 9 9 9 10 10 10 10 10 9 8 8 6
14 11 11 12 13 17 11 18 13 10 10 9 10 10 10 10 9 9 10 10 10 10 10 10 9 8 8 9 9 11 11 12 11 11 11 10 9 10 9 10 10 11 10 10 10 9 9 9 9
13 10 12 12 14 16 14 16 15 11 12 11 10 9 10 10 10 10 10 10 11 11 11 10 10 9 9 9 10 11 12 11 10 11 10 10 10 10 10 10 11 11 11 10 10 10 9 9 8
10 11 12 13 14 19 13 14 14 12 11 10 9 9 9 10 10 9 9 10 11 12 11 11 11 10 10 9 11 11 12 11 11 11 12 11 11 11 11 11 11 12 12 11 11 10 10 9 8
12 14 18 19 19 18 11 13 13 10 8 9 10 10 10 10 9 10 10 11 12 12 11 10 11 11 11 11 11 12 12 11 11 12 12 12 12 12 12 11 12 12 12 12 11 11 10 9 8
12 12 16 19 20 18 12 16 14 9 8 8 8 9 8 9 10 11 10 12 12 12 12 11 12 12 12 12 12 12 12 12 12 12 12 12 12 12 13 12 12 13 13 13 12 11 11 10 10
12 13 11 15 15 19 16 12 10 8 8 7 8 8 9 9 10 11 10 11 13 13 14 12 12 12 12 12 13 13 13 13 13 13 13 12 12 12 14 14 13 13 14 14 13 13 13 12 11
11 9 15 14 19 19 16 16 16 12 10 9 11 9 9 9 10 12 11 11 12 14 14 12 12 12 12 13 13 13 13 13 13 14 14 14 14 14 15 15 14 14 13 14 14 14 13 14 14
11 13 12 12 14 19 21 18 10 11 10 10 11 11 9 10 12 12 13 11 12 12 14 14 12 13 13 13 13 14 13 13 13 14 15 15 14 14 16 15 15 14 14 15 15 15 15 15 15
10 12 11 16 16 16 16 18 9 8 8 8 8 11 9 9 12 12 12 12 13 12 12 14 14 12 13 13 13 14 13 13 14 14 15 15 16 15 16 16 16 15 15 15 16 17 16 17 17

GFSSGP_con_lsi_159.txt.gz
Lid_Strength_Index
3 6 8 7 12 14 15 13 12 10 10 8 6 8 9 8 10 13 3 4 5 6 5 4 2 2 1 1 1 0 -0 -1 -1 -1 -1 -1 -1 -1 -1 -1 -1 -1 -1 -1 -1 -1 -1 -1 -1
4 6 8 10 14 16 14 12 11 9 8 8 9 7 8 9 5 4 5 6 7 6 6 5 2 2 1 0 0 0 0 0 1 1 0 -1 -1 -1 -1 -1 -1 -1 -1 -1 -1 -1 -1 -1 -1
7 7 10 12 15 15 14 12 10 8 8 9 10 9 8 7 5 5 6 6 6 7 5 4 2 1 0 1 -0 -1 -1 -1 -2 -2 -1 0 0 0 0 -0 -1 -1 -1 -1 -1 -1 -1 -1 -0
9 10 11 13 14 12 12 10 8 8 8 7 8 9 8 7 8 6 6 7 8 8 6 4 2 0 0 -1 -1 -1 -1 -2 -1 -1 -2 -2 -0 1 1 1 1 1 0 -0 -1 -1 -1 -1 -0
11 12 15 16 15 12 12 9 9 10 9 8 8 10 9 7 6 7 7 7 8 8 7 4 1 1 0 -0 -1 -1 -1 -1 -1 -1 -1 -1 -2 -2 0 1 2 1 1 1 0 -0 -1 -1 -0
12 14 16 18 15 12 11 10 8 9 8 8 8 9 9 6 7 7 8 8 8 7 7 6 3 1 1 0 0 0 -0 -0 0 -0 -0 -0 -0 -0 -1 -1 -1 2 3 2 2 2 1 -0 -1
14 15 17 17 15 13 11 10 9 9 9 9 8 10 8 7 6 7 7 8 7 7 7 7 6 4 3 1 1 1 1 1 1 0 1 1 1 1 1 0 -0 -0 -1 1 3 3 3 2 0
13 14 17 16 15 15 12 10 9 8 9 7 7 10 9 7 6 7 8 7 8 7 7 7 7 6 6 6 2 1 1 1 2 2 2 2 3 2 2 1 1 1 0 0 0 0 2 3 2
13 15 16 16 15 14 12 12 8 8 8 8 8 7 6 5 5 6 7 7 7 7 8 7 7 7 6 6 4 4 3 3 3 4 3 4 5 5 4 2 2 2 1 2 1 1 1 1 1
13 15 14 13 13 14 12 11 9 9 10 10 8 6 5 5 6 7 8 8 8 8 8 8 8 7 7 5 7 7 6 6 6 6 6 6 6 6 5 5 4 4 3 3 4 3 3 4 4
14 14 13 12 12 11 13 12 11 10 11 9 8 7 6 6 7 8 8 9 9 8 8 9 8 8 8 7 7 7 7 7 7 7 7 7 7 7 7 7 7 7 6 8 7 7 7 6 5
15 12 12 12 11 12 13 10 10 10 9 7 7 6 7 9 8 8 8 8 8 8 8 8 8 8 8 7 8 8 8 9 9 9 9 9 9 10 10 10 9 9 9 10 10 9 9 8 7
13 12 11 11 11 12 11 13 11 11 10 9 9 8 9 10 9 9 8 8 8 8 8 8 8 8 8 9 9 9 10 9 10 10 10 10 11 11 11 11 10 10 10 11 11 10 10 9 8
11 12 11 11 11 12 12 12 12 10 10 10 10 11 11 11 11 11 10 10 9 8 8 8 9 9 9 10 10 11 10 10 11 11 11 10 11 11 11 11 11 11 10 10 10 10 10 10 9
10 12 11 12 12 12 12 14 13 10 11 11 11 12 12 11 11 11 11 10 10 10 9 9 10 10 10 10 10 10 10 10 12 11 11 11 11 11 12 11 11 11 11 10 10 10 10 10 9
12 13 15 12 12 12 12 15 13 11 11 13 12 12 11 12 11 11 11 11 11 10 10 10 8 10 10 11 11 11 11 11 11 12 12 11 11 11 12 12 12 12 11 11 11 10 10 10 10
14 17 15 13 13 13 15 15 13 11 11 13 12 12 12 12 12 11 10 11 11 10 10 10 10 11 11 11 11 11 11 12 12 12 12 12 11 11 12 12 12 12 12 12 12 11 11 11 10
16 16 16 15 14 14 16 15 13 12 12 13 14 13 13 12 12 11 10 11 11 11 11 10 10 11 11 11 11 12 12 12 12 12 12 12 12 12 12 11 12 12 12 12 12 11 10 10 10
13 14 15 15 12 14 14 15 14 13 14 14 14 14 13 12 11 10 10 11 12 12 11 10 11 11 11 11 12 12 13 13 12 12 12 12 12 12 12 11 12 12 12 11 10 10 11 10 9
13 14 15 14 12 14 15 15 14 14 13 13 13 13 13 12 11 10 11 12 12 12 12 11 11 11 12 12 12 12 13 12 13 12 12 11 11 11 11 12 13 12 12 12 11 11 11 10 9
14 15 15 15 14 13 16 17 16 13 13 13 12 12 11 12 12 11 12 13 13 13 13 12 12 12 12 12 12 13 12 13 13 13 13 12 11 11 12 11 12 12 12 12 12 11 12 12 10
14 12 13 14 15 18 15 19 16 14 14 13 13 13 12 12 11 11 12 14 14 14 13 13 12 12 12 12 13 14 14 15 13 13 12 12 11 11 12 13 12 12 11 12 12 11 11 11 12
12 11 12 13 16 17 17 18 18 14 14 13 12 12 12 12 12 12 13 14 14 14 15 14 13 12 12 13 13 14 14 13 13 13 13 11 12 12 13 13 12 12 12 13 13 12 11 11 11
11 12 13 14 16 20 17 18 18 15 13 13 11 11 11 11 12 13 13 13 14 15 15 15 14 13 13 13 13 14 14 14 14 14 13 12 12 13 14 13 13 13 13 13 13 12 12 12 12
13 15 19 20 20 19 15 17 16 12 11 11 12 12 11 11 12 13 14 14 14 15 15 14 14 14 13 13 14 14 14 14 14 14 14 14 14 15 16 14 14 13 14 13 13 13 13 13 13
14 14 18 20 20 19 15 18 15 11 10 10 10 11 10 11 12 13 13 14 14 14 15 15 14 14 13 13 14 14 14 14 14 14 14 14 14 15 16 14 14 14 14 15 14 14 14 14 14
13 15 12 16 17 19 18 15 12 11 11 10 11 11 11 11 12 12 13 14 14 15 15 14 14 14 13 14 14 14 14 14 14 14 14 14 14 15 16 14 14 15 16 16 16 16 16 15 15
12 12 17 17 20 21 19 18 18 13 12 11 12 11 11 11 11 12 13 14 14 17 15 14 13 13 13 14 14 13 14 13 14 14 14 15 15 15 16 14 14 16 17 17 17 17 17 16 16
14 15 14 14 16 19 22 20 13 12 11 11 11 11 10 10 11 12 13 13 14 15 16 15 13 13 13 13 13 13 13 13 13 14 15 15 16 16 15 15 15 16 18 17 18 17 18 18 17
12 13 12 16 17 17 20 19 11 9 8 8 9 10 10 10 12 12 13 14 15 14 15 16 15 16 14 13 13 12 12 13 14 15 15 15 16 15 15 15 15 16 18 18 19 19 18 19 18

GFSSGP_con_lsi_162.txt.gz
Lid_Strength_Index
3 6 8 8 12 14 15 14 14 11 11 8 6 8 9 8 10 13 5 4 5 5 5 4 2 2 2 1 1 1 -0 0 -0 -1 -1 -1 -1 -1 -1 -1 -1 -1 -1 -1 -1 -1 -1 -1 -1
3 7 8 11 14 16 14 12 12 10 8 9 9 8 8 9 5 6 7 5 5 5 4 5 2 2 2 1 0 -1 -2 -1 -0 0 0 -0 -0 -0 -0 -0 -0 -1 -1 -1 -1 -1 -2 -1 -1
6 8 10 13 16 15 14 12 10 8 10 11 11 10 9 8 4 7 7 5 6 6 6 4 2 2 1 -0 -1 -0 -1 -1 -1 -2 -2 -1 -0 0 1 1 0 -0 -0 -0 -1 -1 -1 -1 -0
9 10 11 13 15 14 12 10 9 9 11 10 10 12 9 8 7 7 6 7 8 9 8 5 3 2 1 0 0 -1 -1 -1 -1 -1 -1 -2 -2 -2 0 1 1 1 1 0 0 1 0 -0 -0
12 12 15 16 16 14 13 10 8 9 10 9 9 10 11 8 6 7 8 8 9 10 9 6 2 2 1 0 -0 -1 0 -0 -0 -0 -0 -1 -1 -1 -1 -1 -1 1 1 2 2 2 1 1 0
13 14 16 17 16 14 12 10 10 9 8 8 9 10 11 7 8 8 8 9 9 10 9 7 4 2 2 1 1 1 1 1 0 0 1 0 0 0 0 -0 -0 -0 -1 1 2 3 3 2 2
14 15 17 18 16 14 11 9 10 9 9 9 8 10 9 9 8 9 9 9 10 9 9 9 8 5 3 2 2 2 1 1 1 1 2 2 2 2 1 1 1 1 0 0 0 -0 2 3 3
14 15 16 18 16 15 12 10 10 9 10 7 7 10 10 9 8 9 9 11 11 9 9 9 8 7 7 6 3 2 2 2 3 2 3 3 4 3 3 3 2 2 1 2 2 2 1 1 1
13 15 17 17 15 14 12 12 9 8 9 8 8 7 6 8 9 9 11 11 10 8 8 8 8 7 7 6 5 5 3 4 4 5 4 5 7 6 6 4 3 4 3 4 3 3 3 3 3
14 16 15 14 14 14 12 11 9 10 10 10 8 7 6 8 9 10 10 10 9 9 9 9 8 8 8 7 7 7 7 7 7 7 7 7 8 7 7 6 5 5 5 6 5 5 5 5 6
15 15 14 13 13 12 13 12 12 11 12 9 9 8 7 8 9 9 10 9 9 9 9 9 9 9 9 8 8 8 8 8 8 9 9 9 10 10 10 10 10 10 8 10 9 9 9 8 8
15 13 13 13 12 13 13 10 11 11 10 8 6 7 7 9 9 10 10 10 10 9 9 9 9 9 9 9 9 10 9 10 10 11 10 11 12 12 12 12 11 11 11 11 11 10 10 10 9
14 13 12 12 11 13 11 13 11 11 9 7 7 7 9 10 11 10 10 10 10 9 9 9 9 10 10 10 10 10 10 10 11 11 11 11 12 12 12 12 11 11 11 11 11 11 10 10 9
12 12 12 11 11 13 12 13 13 11 10 9 9 12 11 11 11 11 11 11 10 10 10 10 10 10 11 11 11 12 12 12 12 12 12 11 12 12 12 12 12 12 12 12 11 11 10 10 9
11 13 13 13 13 12 12 15 13 11 11 11 12 12 12 11 12 11 11 11 11 11 10 11 11 11 11 11 11 12 12 12 12 12 12 12 12 12 12 12 13 13 12 12 12 11 11 11 10
13 14 15 13 13 13 13 15 14 12 11 13 13 12 12 12 12 11 11 11 11 11 11 10 9 11 12 12 12 12 12 13 13 13 13 12 12 12 13 12 13 13 12 12 12 12 11 11 11
15 17 16 14 14 14 15 15 15 13 12 13 13 13 13 13 13 12 11 11 11 11 11 11 11 12 12 12 12 12 12 13 13 13 13 12 12 12 13 12 13 13 13 12 12 11 11 11 10
16 17 17 16 14 15 16 15 14 13 12 13 14 14 14 13 12 12 12 12 12 12 11 11 11 11 12 12 12 13 13 13 13 13 13 12 12 12 13 12 13 13 12 12 12 12 11 11 10
14 15 16 15 13 15 14 15 14 14 14 15 14 14 14 13 13 12 12 12 13 12 11 11 12 12 13 13 14 13 14 14 13 13 12 12 12 12 13 13 13 13 13 12 12 11 12 11 10
13 15 15 14 13 14 15 16 15 14 13 13 13 14 14 14 13 12 12 13 13 12 11 12 12 13 13 13 14 13 14 13 13 13 13 12 12 13 13 13 13 12 12 12 12 12 12 11 10
14 15 15 15 14 14 16 17 16 14 13 13 13 13 13 13 13 12 12 13 14 13 12 12 12 13 13 13 14 14 13 13 14 14 13 13 12 13 13 13 13 12 12 13 13 12 12 12 10
15 12 13 14 16 18 16 19 16 15 15 14 13 14 13 13 12 12 13 14 14 14 12 12 12 12 13 13 14 15 15 16 14 14 14 13 12 13 13 13 13 12 12 13 13 12 11 12 13
13 10 12 13 16 18 18 18 19 15 15 14 14 13 13 12 12 12 13 13 14 14 14 13 12 13 14 14 15 15 16 15 15 15 15 14 13 13 14 13 13 13 13 13 13 12 13 12 13
11 14 14 15 17 21 17 17 19 17 14 14 13 13 13 12 12 12 13 13 15 14 14 14 14 14 14 15 15 16 16 16 16 16 16 15 14 14 14 13 13 13 14 14 13 13 13 13 13
13 15 19 21 21 20 16 18 16 14 12 11 13 13 12 12 12 13 14 14 14 15 14 15 15 15 15 15 16 15 15 15 16 16 15 15 15 15 15 14 14 14 15 15 14 14 14 14 14
12 13 17 21 21 20 16 19 17 12 11 11 11 12 12 12 12 12 13 13 14 14 15 15 15 15 15 15 15 15 15 15 15 15 14 14 14 14 14 14 14 15 15 15 14 15 16 15 16
13 15 11 15 17 19 18 16 13 12 12 12 12 12 13 12 12 12 13 13 14 15 15 15 15 15 14 15 15 15 15 15 15 14 14 14 14 14 14 14 14 15 16 16 15 16 17 16 16
11 11 16 16 19 20 19 18 18 14 13 12 13 13 12 11 12 12 13 14 14 16 15 15 14 14 14 15 14 14 14 14 14 14 15 15 15 14 15 15 15 16 16 16 16 17 17 17 17
14 15 15 15 16 19 22 20 14 13 12 12 13 12 11 11 11 13 14 14 15 16 17 15 14 14 14 13 14 14 14 13 14 14 15 15 15 15 15 14 14 15 16 16 17 17 17 18 17
14 14 14 17 18 18 20 20 13 11 10 10 11 11 11 10 12 13 14 15 15 15 15 16 15 15 14 13 13 13 13 14 14 15 15 15 16 15 14 14 14 14 16 17 18 18 18 19 18

GFSSGP_con_lsi_165.txt.gz
Lid_Strength_Index
1 4 4 4 8 8 10 10 10 10 10 7 6 7 8 7 9 11 5 4 4 4 3 2 1 2 1 1 0 0 -0 -0 -1 -1 -1 -1 -1 -1 -1 -0 -0 -1 -1 -1 -1 -1 -1 -1 -1
2 5 4 6 9 10 10 8 9 9 7 6 7 6 8 9 5 6 7 4 4 4 3 3 2 2 1 1 -0 0 -1 -2 -1 -1 -1 -1 -0 -0 -0 -0 -0 -0 -0 -1 -1 -1 -1 -1 -1
4 5 5 7 10 10 11 9 8 8 8 8 8 8 7 8 5 7 6 5 5 5 3 3 2 2 1 1 0 0 -0 -0 -1 -1 -2 -2 -2 -0 0 1 1 1 0 -0 0 0 0 0 -1
6 6 7 8 10 9 9 8 8 9 9 8 8 9 8 6 7 6 6 6 6 7 4 3 2 2 2 1 1 0 0 0 -0 -1 -1 -1 -1 -2 -1 -2 -0 1 1 1 1 1 1 2 1
8 7 9 10 11 10 9 7 7 10 10 9 8 8 8 7 6 6 7 7 9 9 6 4 3 2 2 2 1 1 1 0 -0 0 0 -0 -0 -1 -1 -1 -1 -1 -1 1 1 2 2 2 2
8 9 11 11 12 10 8 6 7 9 7 7 7 7 8 6 7 8 8 9 9 9 7 6 4 3 2 2 1 1 1 1 1 1 1 1 1 1 1 0 0 0 0 0 0 0 1 3 3
9 10 12 12 12 10 9 7 7 7 7 7 5 9 7 7 7 8 9 9 9 8 7 7 6 4 3 2 2 2 2 2 2 2 3 3 3 3 2 2 1 1 1 2 2 2 2 1 1
9 10 12 12 12 11 8 8 8 7 8 6 6 8 8 8 8 8 8 8 8 8 7 7 6 5 4 3 2 2 3 3 3 3 4 5 4 4 4 3 3 3 3 3 3 3 3 3 3
9 10 12 12 12 11 8 8 7 7 7 7 6 5 4 7 8 9 9 8 8 8 7 6 5 4 4 5 4 4 4 5 5 5 5 6 6 5 5 5 5 5 4 5 5 5 4 4 4
9 11 11 10 10 10 9 8 7 7 8 8 7 6 5 8 9 9 9 9 9 7 6 5 5 5 5 5 5 5 5 6 6 6 6 6 6 6 6 7 7 7 7 7 7 7 6 6 5
11 10 10 10 10 10 9 9 8 7 9 7 7 7 6 8 9 9 9 7 7 7 6 6 5 5 5 5 6 6 6 6 7 6 7 7 7 7 7 8 8 8 8 8 8 7 7 7 7
11 10 10 10 10 10 10 8 9 7 7 6 5 5 6 8 9 9 8 8 8 8 7 7 7 7 6 6 7 7 7 7 8 8 8 8 9 9 9 9 9 9 9 8 8 8 7 7 7
10 10 9 9 9 10 9 10 9 9 7 5 6 6 7 7 8 8 7 7 8 8 8 8 7 7 7 7 7 8 8 9 9 9 9 9 9 9 9 9 9 9 9 9 9 8 8 8 7
9 9 9 9 9 9 10 10 9 9 7 7 7 7 7 8 8 8 8 8 8 8 8 7 8 7 8 8 8 9 9 9 9 9 9 9 9 9 9 9 9 9 9 9 9 9 9 8 8
9 10 10 9 9 10 10 11 10 9 7 8 8 8 8 8 8 8 8 8 8 8 8 8 8 8 8 9 9 9 9 9 10 10 9 9 9 10 9 9 10 10 9 9 9 8 8 8 8
10 11 12 10 10 10 10 11 11 9 8 9 9 9 9 9 9 8 8 8 8 8 8 8 8 9 9 9 9 10 10 10 10 10 9 10 9 10 9 9 10 10 9 9 9 9 9 8 8
12 12 13 11 11 11 11 12 12 10 9 10 10 10 10 10 10 9 8 8 8 8 8 9 8 9 9 9 9 10 10 10 10 10 10 10 10 10 10 10 10 10 9 9 10 9 9 9 9
13 14 13 12 11 11 12 12 12 11 10 10 10 10 10 10 10 9 9 9 9 9 9 9 9 9 9 9 9 10 10 10 10 10 10 10 10 11 11 10 10 10 10 10 10 10 9 9 9
12 13 13 12 11 11 11 11 11 11 11 11 11 11 11 10 10 9 9 9 9 9 9 10 10 10 9 9 9 9 10 11 11 11 11 11 11 11 11 11 10 10 11 11 10 10 10 10 10
12 13 13 11 11 12 12 12 11 11 11 10 11 11 11 10 10 10 10 10 9 9 9 10 10 10 10 10 10 9 9 10 11 11 11 11 11 11 11 11 11 11 11 11 11 11 11 10 9
12 12 13 12 11 12 13 13 12 12 10 10 10 10 10 10 10 11 11 10 10 9 9 9 10 10 10 11 10 10 10 10 11 12 12 11 11 11 11 11 11 11 11 11 11 11 11 12 10
14 11 11 12 13 14 13 16 13 13 12 12 11 11 10 10 9 10 10 11 10 9 9 9 10 11 11 11 11 11 12 13 13 13 12 12 11 11 11 10 11 11 11 11 11 11 11 11 12
12 10 11 11 12 14 13 15 12 13 14 12 11 10 10 9 9 10 10 10 10 9 9 10 11 12 12 12 12 12 13 13 13 13 13 12 12 12 12 11 11 11 11 11 11 11 12 12 11
10 12 13 14 14 17 14 14 13 13 12 11 11 11 10 10 10 10 10 10 10 10 10 10 11 12 12 12 13 13 13 14 13 13 13 12 12 12 12 11 11 11 10 11 11 11 12 12 12
12 12 16 17 18 18 14 15 13 13 10 10 11 11 10 10 10 10 11 11 11 11 11 12 12 12 13 13 13 13 13 13 13 13 13 12 12 12 12 11 11 11 10 10 11 11 12 12 12
11 12 16 20 18 16 15 16 13 11 10 10 9 10 10 10 9 10 10 10 11 12 12 12 12 13 14 14 14 13 13 13 13 13 12 12 11 11 11 11 12 12 12 11 11 12 12 11 12
12 14 10 15 14 17 14 14 11 11 11 11 11 11 10 10 9 10 10 10 11 12 12 12 13 13 14 13 13 13 12 12 13 13 12 11 11 11 11 11 12 12 12 12 12 12 12 12 13
10 10 14 14 20 21 16 15 14 12 10 11 12 11 11 10 9 9 10 11 11 12 12 11 11 12 12 13 12 12 12 12 12 12 12 11 11 11 12 12 12 13 12 12 12 12 12 13 14
13 13 13 12 13 18 19 16 11 11 10 10 12 11 10 9 9 9 11 11 11 12 12 12 12 12 12 12 11 11 12 12 12 12 12 12 12 12 12 12 12 12 12 12 12 13 14 15 15
11 12 11 15 15 15 15 16 11 10 9 8 9 11 9 8 10 10 11 12 13 13 12 13 12 13 12 11 11 11 12 12 12 12 12 12 13 12 12 12 13 13 13 13 14 14 14 16 16

GFSSGP_con_lsi_171.txt.gz
Lid_Strength_Index
0 -0 1 2 6 6 8 7 6 6 7 5 4 5 7 6 8 11 4 4 3 3 1 1 -0 -0 -0 -0 -1 -1 -1 -1 -1 -1 -1 -1 -1 -0 -0 0 -0 -0 -1 -1 -1 -1 -1 -1 -1
1 2 2 3 7 9 8 6 7 6 6 5 5 5 6 8 4 4 4 3 3 2 1 1 1 1 1 1 1 1 -0 -0 -2 -1 -1 -1 -1 -0 0 0 0 -0 -0 -0 -0 0 0 0 0
1 3 4 5 7 9 8 6 6 6 5 5 6 4 5 7 3 3 2 3 2 3 2 2 1 2 1 1 1 1 0 -0 -1 -1 -1 -1 -1 -1 -2 -2 -1 -1 -1 -0 0 1 1 1 2
3 3 4 7 8 7 6 6 5 6 5 5 5 7 4 3 3 2 2 3 2 2 2 2 2 2 2 1 1 1 1 1 0 0 -0 -0 -0 -1 -1 -1 -1 -1 -1 -1 -1 -1 -0 1 2
3 4 6 7 7 6 5 5 5 6 6 5 5 7 6 3 1 2 3 4 3 4 3 2 2 2 2 2 1 2 2 2 1 1 1 1 0 0 0 0 0 0 0 0 0 1 1 1 0
5 4 8 9 7 6 5 4 5 5 5 5 6 6 5 1 2 3 4 4 4 4 3 3 3 3 2 2 3 3 3 3 3 3 2 2 2 2 1 2 2 1 2 2 2 2 2 2 1
6 6 8 7 7 7 6 4 5 5 5 6 4 6 4 3 1 4 4 5 5 5 3 2 3 3 4 4 4 4 4 4 3 3 3 3 3 3 3 3 3 2 2 3 3 3 3 2 2
4 5 7 7 8 7 5 5 4 5 5 3 3 6 6 3 3 4 5 5 5 5 4 3 3 2 3 4 5 4 4 4 3 3 4 4 3 4 4 4 4 4 3 3 4 3 3 3 3
4 7 8 7 7 6 4 5 4 3 4 4 3 4 3 1 3 5 6 5 5 5 4 4 4 3 2 3 4 4 4 4 3 3 3 1 2 3 3 5 5 4 4 4 4 4 4 3 2
6 7 7 5 5 6 5 5 5 5 5 5 4 3 2 2 3 4 4 5 5 5 4 3 3 3 2 3 2 2 3 3 3 3 3 3 3 4 4 4 6 4 5 4 4 4 3 2 3
5 7 6 6 6 6 6 5 4 5 6 4 5 4 3 2 2 2 3 3 4 5 5 3 3 2 2 2 2 3 3 3 3 3 3 3 4 4 4 4 4 4 4 5 4 4 4 4 4
7 6 6 5 6 6 6 5 5 4 4 3 3 3 3 3 3 2 2 3 3 5 5 3 3 2 2 3 3 4 4 4 4 4 4 4 5 4 4 5 5 5 5 5 5 5 4 4 4
7 6 6 6 6 6 6 6 6 5 3 3 2 3 3 3 2 2 2 3 4 5 4 3 3 3 3 3 4 4 4 4 4 5 5 5 5 5 5 5 5 5 5 5 5 5 5 4 4
6 6 6 6 6 6 7 6 6 5 4 4 3 3 3 3 2 2 3 3 4 4 4 3 4 3 4 4 4 5 5 5 5 5 6 5 6 6 6 6 6 6 5 5 5 5 5 5 4
6 8 7 6 6 7 6 8 7 5 4 5 4 3 3 3 2 3 3 3 3 4 4 4 4 4 4 4 5 5 5 5 6 6 5 6 6 6 5 6 6 6 5 5 5 5 5 5 5
7 7 10 7 6 6 7 10 7 5 5 5 5 4 3 3 3 3 3 3 4 4 4 5 5 4 4 5 5 5 6 6 6 6 6 6 6 6 6 6 6 6 5 5 5 6 6 5 5
7 10 8 7 6 6 7 9 6 5 5 6 5 4 4 4 3 3 3 4 4 4 4 5 4 4 5 5 5 5 6 6 6 6 7 6 6 6 6 6 6 5 6 5 6 6 6 6 5
10 9 8 8 7 7 8 8 6 6 6 6 5 4 4 4 4 4 4 4 4 4 4 4 4 4 5 5 5 6 6 6 6 7 7 7 7 7 7 6 6 6 6 6 6 6 6 6 6
7 8 9 7 6 8 8 8 7 6 6 6 6 5 5 5 4 4 4 4 4 4 5 5 5 5 5 5 5 5 6 6 7 7 7 7 7 7 7 7 6 6 6 6 6 7 6 6 6
8 9 9 7 6 7 7 8 6 5 6 6 6 6 5 5 5 5 5 5 5 5 5 5 5 5 5 5 5 5 6 7 7 7 7 7 7 7 7 7 7 6 7 6 6 7 7 6 6
9 9 9 9 7 6 8 9 7 6 5 5 6 5 5 5 6 6 6 5 5 5 5 5 5 5 6 6 6 6 6 7 7 7 8 8 8 8 7 7 7 7 6 7 7 7 7 8 6
10 7 8 9 10 12 7 13 9 7 6 6 6 6 5 5 5 5 6 6 5 5 4 5 5 6 6 6 6 7 6 7 8 7 8 8 8 8 9 8 8 7 6 7 6 6 6 7 8
9 7 8 8 10 10 10 12 10 7 8 6 7 6 6 5 5 6 6 5 5 4 5 5 5 6 7 7 6 7 7 7 8 8 8 8 8 9 9 8 8 7 7 6 6 6 6 6 7
7 8 9 9 10 15 11 12 11 9 8 7 6 6 6 5 5 5 5 5 5 4 5 5 6 7 7 7 7 7 7 8 8 8 8 8 8 8 8 8 8 8 7 7 6 6 6 7 7
8 10 16 17 16 16 10 11 10 7 7 7 6 6 5 5 4 5 5 5 5 5 5 5 6 8 8 8 8 7 7 8 8 9 9 8 8 8 8 8 8 8 7 7 7 7 7 7 7
9 10 15 19 17 15 10 13 10 7 6 6 6 5 5 5 4 5 5 5 5 5 5 6 7 8 8 8 8 8 8 8 8 9 8 8 8 8 8 8 7 8 8 7 7 8 8 7 7
9 12 8 13 12 16 13 10 8 7 7 7 6 6 5 5 5 4 4 4 5 5 5 6 7 8 8 8 8 8 8 8 9 8 8 8 7 8 7 7 7 8 8 8 8 8 8 7 7
8 7 13 15 21 20 14 12 13 10 8 7 7 6 5 4 4 4 4 4 5 8 5 6 6 7 8 8 8 8 8 8 8 8 8 8 7 7 7 8 8 8 8 9 8 9 9 9 8
10 11 11 11 14 20 19 16 7 9 8 7 7 6 5 4 4 4 4 5 5 6 7 5 6 7 8 8 8 8 8 8 8 8 8 7 7 7 8 8 9 9 9 10 9 9 10 11 10
8 9 10 15 16 14 15 16 7 6 6 6 6 7 5 4 4 4 5 4 6 7 7 8 6 9 7 7 7 7 8 8 9 9 8 7 8 8 8 8 9 10 10 10 10 10 10 11 12

GFSSGP_con_lsi_177.txt.gz
Lid_Strength_Index
3 4 5 6 12 12 13 11 9 8 9 7 6 7 9 8 10 13 4 3 2 1 1 -0 -1 -1 -1 -1 -1 -1 -1 -1 -1 -1 -1 -1 -1 -0 -0 -0 -0 -1 -1 -1 -1 -0 -0 0 0
6 5 6 9 14 16 12 10 10 9 7 5 6 6 8 9 6 6 5 3 2 1 1 1 -1 -1 -1 -1 -1 -1 -1 -1 -1 -1 -1 -1 -1 -1 -0 -0 -0 -1 -1 -2 -2 -2 -1 -0 1
4 5 10 13 14 14 13 10 9 7 6 6 7 5 6 8 5 5 2 3 1 2 2 1 0 -0 0 0 0 -0 -0 -1 -1 -1 -1 -1 -1 -1 -1 -0 -1 -1 -1 -2 -1 -1 -1 -1 -0
6 8 10 14 15 11 10 8 7 7 6 5 6 9 5 3 4 3 2 1 2 3 2 1 1 1 1 1 1 1 0 0 0 0 0 -0 -0 0 1 1 0 -0 -0 -0 -0 -0 0 1 0
8 10 14 15 13 10 8 8 7 7 7 7 6 9 7 4 3 2 2 2 3 3 3 2 1 1 1 1 1 1 2 2 2 2 1 1 1 1 2 1 1 1 1 1 1 1 1 1 1
10 11 15 16 12 10 8 7 6 6 7 6 7 7 7 3 3 2 2 3 3 4 3 3 2 2 2 2 3 3 3 3 3 2 3 2 2 2 2 2 2 2 2 2 2 2 2 2 1
11 13 14 13 11 10 9 7 6 7 7 7 5 8 6 4 3 3 3 4 5 5 4 5 4 3 3 3 3 3 4 4 4 4 3 3 2 2 2 3 3 3 2 3 2 2 2 2 1
10 11 13 12 11 11 8 6 6 6 7 4 5 9 8 4 3 5 5 6 6 5 5 5 6 6 7 7 4 4 4 4 4 4 4 3 2 2 3 4 3 3 3 3 3 2 1 2 2
9 13 13 12 11 10 7 7 5 5 6 5 5 5 4 3 3 6 7 7 7 5 6 6 6 7 8 7 5 4 4 3 4 3 2 3 6 6 5 4 4 3 3 3 3 2 2 2 3
11 14 12 9 9 9 8 8 6 7 6 7 6 5 5 5 4 6 7 7 7 7 6 6 6 7 7 6 7 7 5 6 7 5 6 6 6 6 4 4 3 3 4 4 4 3 4 4 7
9 11 9 8 8 8 11 9 8 7 8 7 7 6 5 5 4 6 7 7 7 7 6 7 6 6 5 6 7 6 6 6 7 7 7 7 7 7 7 8 8 8 5 7 7 7 7 7 7
10 8 8 8 7 9 11 9 9 7 6 5 5 5 5 5 4 5 6 6 6 6 6 6 6 7 6 6 7 7 7 7 8 8 8 8 8 8 8 8 9 9 9 9 8 8 8 7 7
9 9 8 7 7 9 8 9 9 8 6 4 4 5 5 5 4 4 4 5 6 7 6 6 6 7 6 6 7 8 8 8 8 8 8 8 9 9 8 9 9 9 9 9 8 9 8 8 7
8 7 8 9 8 8 9 9 10 8 4 5 5 5 5 4 4 4 4 5 5 5 6 6 6 7 6 7 7 8 8 8 8 8 8 8 9 9 9 9 9 9 9 9 9 9 9 9 8
7 9 9 9 9 9 8 11 11 8 5 6 6 5 5 4 4 4 5 5 5 5 5 6 6 7 7 7 8 8 7 7 8 8 8 9 9 10 9 10 10 10 9 9 9 9 9 9 8
9 10 12 9 9 8 10 12 9 8 8 6 6 5 5 4 4 5 5 6 6 6 6 6 5 6 7 8 8 8 8 9 9 9 9 9 9 10 10 10 11 10 10 9 10 10 10 10 9
11 14 12 10 7 9 10 12 9 8 9 9 6 6 5 5 4 5 5 6 6 6 6 7 7 7 7 7 8 8 9 9 9 9 9 9 9 9 10 10 11 10 10 10 10 10 10 10 9
13 13 12 11 9 9 11 11 9 8 8 9 8 7 6 5 5 5 6 6 6 6 6 7 7 7 7 8 8 9 9 9 9 10 10 10 10 10 11 11 11 10 10 10 10 11 10 10 10
10 11 11 10 8 9 11 11 11 10 10 10 10 8 7 6 5 5 6 6 6 6 7 6 7 7 8 9 9 10 10 10 10 11 10 10 11 10 11 11 11 11 10 10 10 11 11 11 10
10 11 11 10 8 9 11 11 10 9 9 9 9 9 7 6 6 6 6 7 7 7 7 7 7 7 8 9 9 9 10 11 10 10 11 11 11 11 11 11 11 11 11 11 11 11 12 11 10
10 11 11 11 9 9 10 11 11 9 8 8 8 8 7 6 7 7 7 8 7 7 7 7 7 7 8 9 9 10 10 11 11 11 12 12 11 11 11 11 11 11 11 11 11 11 11 13 11
12 8 9 10 12 15 10 16 11 10 8 8 8 8 8 6 6 7 8 8 8 8 7 7 7 7 8 9 10 11 12 12 12 12 12 12 12 12 11 11 11 11 11 11 11 10 11 12 13
11 8 9 10 12 13 12 14 12 10 10 9 8 7 7 7 7 7 8 8 7 7 7 7 7 9 9 9 10 11 12 12 12 12 12 12 12 12 11 11 12 12 12 12 11 11 11 11 12
8 9 10 11 13 19 13 14 14 11 10 8 7 7 7 6 7 7 8 7 8 8 8 8 9 10 10 9 10 11 12 12 12 12 13 12 12 12 12 11 12 12 12 12 11 11 11 11 11
9 13 18 20 20 21 13 15 13 9 8 7 8 8 7 6 7 8 8 8 8 8 8 9 9 10 10 10 10 11 11 12 12 12 13 12 12 13 13 12 12 12 11 11 11 12 11 11 11
11 12 18 23 22 18 12 17 13 8 7 8 8 8 7 8 8 8 8 8 8 8 9 9 10 10 10 10 10 11 11 12 12 12 12 12 12 12 12 12 12 12 11 11 12 12 11 11 11
11 13 10 15 15 19 16 13 9 8 8 8 9 8 8 7 8 8 8 8 8 8 9 9 10 11 10 10 11 11 11 11 12 11 11 12 12 11 12 12 12 12 12 12 12 12 12 12 12
10 10 17 16 22 23 19 17 16 12 10 8 9 9 8 7 7 8 8 7 7 10 9 10 10 10 10 11 11 11 11 11 11 11 12 12 12 11 12 12 13 13 13 12 12 13 12 13 12
12 13 13 14 16 21 22 19 11 11 9 9 9 9 8 7 7 7 7 7 8 8 9 10 10 10 11 11 11 11 11 11 11 12 12 12 12 12 12 12 13 13 13 12 13 13 13 13 13
10 12 12 18 19 17 18 18 9 9 8 8 8 7 8 7 7 7 7 8 8 8 9 10 10 11 10 10 11 11 11 11 12 12 12 12 12 12 12 12 13 12 13 13 12 13 13 13 14

GFSSGP_con_lsi_180.txt.gz
Lid_Strength_Index
3 4 6 8 13 14 15 12 9 10 9 7 6 7 9 8 10 12 4 3 1 0 -0 -1 -1 -1 -1 -1 -1 -1 -1 -1 -1 -1 -1 -1 -0 -0 -0 -0 -1 -1 -1 -2 -2 -1 -1 -0 0
6 6 7 10 15 18 15 11 12 10 7 6 6 7 8 10 6 5 4 3 1 1 1 -1 -1 -1 -1 -1 -1 -1 -1 -1 -1 -1 -1 -1 -1 -1 -1 -1 -1 -1 -2 -2 -2 -2 -2 -1 -1
5 6 9 12 16 17 15 10 9 7 6 6 7 6 7 8 5 4 3 2 1 2 1 -0 -1 -1 -1 -1 -1 -1 -0 -0 -1 -1 -1 -1 -1 -1 -1 -1 -0 -0 -1 -1 -1 -1 -1 -0 -0
7 9 10 14 16 13 12 10 8 8 6 6 6 9 5 3 4 3 2 1 3 2 2 0 0 -0 -0 0 0 0 -0 -0 -0 0 -0 -0 -0 0 0 1 1 0 -0 -0 -0 0 0 0 0
8 11 14 16 15 13 10 9 9 8 7 7 6 9 8 4 3 2 2 2 3 3 2 2 1 0 1 0 0 1 0 1 1 1 1 1 1 2 2 2 2 1 0 1 1 1 1 1 1
10 12 16 17 14 11 10 8 8 7 7 7 7 8 7 3 3 2 2 2 3 4 3 3 2 1 1 1 1 2 2 2 3 2 2 2 2 3 3 2 1 1 2 2 2 2 2 1 1
12 14 15 15 13 11 9 9 8 7 7 8 6 9 6 4 3 2 2 3 4 4 4 3 4 3 3 3 3 4 3 3 3 3 3 2 3 3 2 2 2 2 2 2 2 2 2 2 2
10 12 15 14 12 12 9 8 6 7 7 5 5 10 9 4 2 2 3 4 6 5 6 5 5 6 6 6 4 4 4 4 3 3 3 3 3 2 3 3 2 2 2 2 2 2 2 3 3
10 14 15 13 13 11 8 9 5 6 6 6 6 5 4 3 4 4 4 6 6 6 6 7 8 8 8 8 5 4 3 3 3 4 3 5 7 6 6 3 2 3 3 3 3 3 3 3 4
11 14 13 11 10 10 8 9 8 7 7 7 7 5 4 5 5 6 5 6 7 7 7 7 8 9 8 6 7 7 6 8 8 7 7 7 7 5 5 4 3 4 4 4 4 4 4 6 8
11 12 10 9 9 9 10 10 9 7 9 7 8 6 6 6 6 6 6 7 6 6 6 7 8 8 8 8 8 8 9 9 8 8 7 8 8 8 8 9 9 9 6 8 8 8 8 8 8
11 9 9 8 8 9 10 9 10 8 6 5 5 5 5 6 6 7 7 7 7 7 7 6 7 7 8 7 7 9 9 8 9 9 8 9 9 9 9 9 9 9 9 9 9 9 9 9 8
9 9 8 8 8 10 9 10 9 9 6 4 4 5 6 6 6 6 7 7 6 6 6 6 7 7 6 8 8 9 8 9 9 9 8 9 9 9 9 10 10 10 9 10 10 10 10 9 9
7 8 8 8 9 9 10 10 11 8 5 5 5 6 6 6 6 6 7 7 6 5 6 7 8 8 7 9 8 8 9 9 9 9 9 9 10 10 10 10 10 10 10 10 10 10 10 10 10
8 10 9 8 10 10 10 12 12 7 5 6 6 6 6 5 5 5 6 7 5 5 6 7 7 7 8 9 8 8 8 9 9 10 10 10 10 10 10 11 11 11 11 10 10 11 10 10 10
10 11 13 9 9 8 10 12 10 8 7 7 6 6 6 6 5 5 5 5 5 5 5 6 5 7 8 9 9 8 8 9 9 10 10 10 10 10 11 11 12 11 10 10 11 11 11 11 11
12 14 13 11 8 9 11 12 9 9 7 7 7 6 6 6 5 5 5 5 5 5 6 6 7 8 8 9 9 9 9 9 10 10 11 11 10 10 11 11 11 10 10 11 11 12 12 12 12
14 14 14 13 10 10 10 11 9 10 9 7 7 6 6 6 5 5 6 6 6 6 6 6 7 8 8 9 9 9 10 10 11 11 11 11 11 10 11 11 11 11 12 12 12 12 12 12 13
11 12 13 11 9 10 10 11 11 10 11 11 7 7 6 6 4 6 6 6 6 6 7 7 7 8 9 9 10 10 11 11 12 11 11 11 11 11 11 12 12 11 12 12 12 13 13 13 12
10 12 12 10 8 9 11 11 10 10 11 11 9 7 6 6 7 7 7 7 7 7 7 7 7 8 9 9 10 10 11 12 11 11 12 11 11 11 11 12 12 12 12 12 13 13 14 13 12
11 12 12 12 9 8 11 11 11 10 10 10 10 7 6 6 7 8 8 7 7 7 7 7 8 8 8 8 10 11 11 11 12 12 13 13 12 12 12 12 12 12 12 13 13 13 13 14 13
14 9 10 11 12 15 10 16 11 11 10 9 10 9 7 7 7 8 8 8 8 8 7 7 7 8 8 8 10 11 11 12 13 13 13 13 12 12 12 12 13 13 13 13 12 12 13 13 14
12 9 10 11 12 13 13 15 12 10 10 9 9 9 9 7 7 8 8 8 8 8 8 8 8 8 9 9 10 11 12 12 12 13 13 13 13 12 12 13 14 13 13 13 13 13 13 13 13
8 10 10 11 13 19 15 14 14 12 10 9 8 7 8 7 7 7 8 8 8 8 8 8 8 9 10 10 10 11 12 12 13 13 13 13 13 13 13 13 14 13 13 13 13 12 13 13 13
10 13 18 20 20 21 13 15 13 10 9 8 8 8 8 6 6 7 8 8 8 8 8 9 9 11 11 11 11 12 12 12 13 13 13 13 14 14 14 14 14 14 13 12 12 12 13 13 14
12 13 18 22 22 19 13 18 14 9 8 9 8 8 8 6 6 8 8 8 9 9 9 10 10 11 11 11 12 12 12 12 12 12 12 13 14 14 14 13 13 13 12 13 13 13 13 13 13
12 14 11 16 16 19 17 14 10 9 9 9 9 9 10 9 9 9 8 8 8 9 10 10 10 11 11 11 12 12 12 12 12 13 12 13 13 13 13 13 14 13 13 13 14 14 14 13 13
10 10 16 16 22 23 19 18 17 12 10 9 10 9 10 9 9 9 8 8 8 10 10 10 10 11 11 12 12 12 12 12 12 12 12 13 13 13 14 14 14 13 14 14 14 14 14 13 13
12 14 14 14 17 21 22 19 12 12 10 10 11 9 9 9 9 8 8 8 8 9 10 11 11 11 11 12 12 12 12 12 12 12 12 13 13 14 13 13 13 13 14 14 14 14 13 14 14
11 13 14 18 19 17 18 18 11 11 10 10 11 9 8 8 9 8 8 8 9 10 11 11 11 11 11 11 11 11 11 12 12 12 13 13 13 13 13 13 13 13 14 14 14 13 13 14 15

GFSSGP_con_lsi_183.txt.gz
Lid_Strength_Index
4 4 8 9 13 15 17 14 11 12 10 7 6 8 9 8 10 13 4 2 0 0 -0 -0 -1 -1 -1 -1 -1 -1 -1 -1 -1 -1 -1 -1 -1 -0 -0 -1 -1 -2 -2 -2 -2 -2 -2 -2 -2
7 5 8 11 15 18 17 13 13 11 7 6 6 7 8 9 6 5 4 1 0 0 0 -0 -1 -1 -1 -1 -1 -1 -1 -1 -1 -1 -1 -1 -1 -1 -2 -1 -1 -1 -1 -1 -2 -2 -1 -1 -1
6 7 10 12 17 17 16 12 10 8 7 7 8 6 7 8 4 4 2 1 1 1 0 -0 -1 -1 -1 -1 -1 -1 -1 -1 -1 -1 -1 -1 -0 -1 -1 -0 -0 -0 -0 -0 -1 -1 -1 -1 -1
7 9 11 15 16 15 13 11 10 10 7 6 7 9 5 4 4 3 1 1 2 2 1 -0 -1 -1 -1 -1 -1 -1 -0 -0 -1 -0 -1 0 0 -0 0 1 0 1 1 -0 -0 -0 -0 -0 -0
9 11 14 16 15 14 12 10 11 10 10 7 7 9 8 4 3 2 2 2 3 2 2 1 -0 -1 -1 -0 -0 0 -0 0 -0 -0 1 1 2 1 1 1 1 1 0 -0 0 -0 -0 0 1
11 12 16 17 15 13 11 10 10 9 9 7 8 8 7 4 3 3 2 3 3 3 3 1 1 0 0 1 0 1 1 1 1 1 1 2 2 2 2 2 2 1 0 1 0 1 1 1 1
12 14 16 16 15 13 11 10 10 8 8 8 6 9 6 4 2 3 2 3 3 3 3 3 3 2 1 1 2 1 2 2 2 2 2 3 3 2 2 2 1 1 1 1 1 2 2 2 2
11 13 16 15 14 13 10 10 8 6 8 5 6 10 9 4 2 3 3 3 4 4 5 5 5 5 6 5 3 3 3 3 3 3 3 3 3 3 3 2 2 2 2 2 2 2 3 3 3
11 14 16 15 14 12 9 11 7 5 7 7 7 6 5 3 3 4 4 4 5 6 6 7 7 7 7 7 5 4 4 3 3 3 4 6 8 7 5 2 2 3 3 3 3 3 4 4 4
11 14 12 11 12 11 9 10 9 8 8 8 7 5 4 3 4 5 5 5 5 6 7 6 7 8 8 6 8 8 7 9 8 8 9 8 7 6 5 4 4 4 4 4 4 4 5 6 9
11 12 10 9 9 9 10 11 10 7 9 7 8 6 5 5 5 5 5 5 6 6 6 7 8 9 9 8 9 10 9 10 10 9 9 9 9 9 9 10 10 9 6 9 8 9 9 9 9
11 10 9 9 8 10 11 10 11 7 6 5 5 5 6 6 5 5 5 6 6 7 6 7 9 9 8 8 10 10 9 10 11 10 9 10 10 10 10 10 10 10 10 10 10 10 10 10 9
10 9 8 8 9 9 9 11 10 9 7 5 5 5 5 5 5 5 5 6 6 7 6 7 9 9 8 8 10 10 9 10 10 9 9 10 10 11 10 11 11 11 11 11 11 11 11 10 10
8 8 8 8 9 10 10 10 11 9 5 6 6 6 5 5 5 5 6 6 7 6 6 6 8 8 8 8 10 9 10 10 10 10 10 10 10 11 11 12 11 11 11 11 11 11 11 11 10
7 11 10 9 9 10 10 12 12 9 6 7 6 6 6 6 5 5 5 6 7 6 6 7 8 9 8 9 10 9 9 9 10 11 10 10 10 11 12 12 12 11 11 11 11 11 11 12 11
10 11 13 10 10 9 10 12 9 7 7 8 7 6 6 6 6 5 5 6 6 7 7 7 7 9 8 9 10 9 10 10 11 11 11 10 10 10 12 12 12 12 12 12 12 12 12 13 13
13 14 13 11 9 10 11 13 9 7 7 8 7 7 6 6 6 6 5 6 6 7 6 7 8 9 8 9 9 10 10 10 11 11 11 11 10 11 12 12 12 12 12 12 12 13 13 13 13
15 14 14 14 11 12 12 13 10 9 7 8 7 7 6 6 6 5 5 5 6 6 5 6 7 8 9 9 9 10 11 11 12 12 11 11 11 11 12 12 11 12 12 13 12 13 13 13 13
11 12 14 13 10 11 11 11 10 9 10 8 7 7 7 6 5 5 6 5 6 5 6 7 8 8 9 10 10 11 12 12 12 12 11 11 12 11 12 12 12 12 12 13 13 13 14 14 14
11 12 13 11 9 10 11 11 11 10 10 11 10 7 7 6 6 5 6 6 6 6 6 7 8 9 9 9 10 11 11 12 12 12 12 12 12 12 12 12 13 13 13 13 14 14 15 15 14
12 13 13 13 10 9 11 12 10 10 9 9 11 8 6 6 7 7 7 7 7 7 7 7 8 9 9 9 10 11 12 12 13 14 14 13 12 12 12 12 13 13 13 14 14 14 15 15 14
14 10 10 11 13 16 10 17 11 11 10 10 10 10 7 6 6 7 7 8 7 7 7 7 8 9 9 10 11 11 12 13 13 14 14 13 12 12 12 12 13 13 13 13 14 13 14 14 15
12 9 11 11 13 14 14 15 13 10 11 10 10 10 9 7 6 7 8 8 7 7 7 7 8 9 10 10 11 11 12 13 13 14 14 14 14 13 13 13 13 13 14 14 14 14 14 14 15
9 10 11 11 14 19 15 14 15 13 11 10 9 9 9 8 7 7 7 7 8 7 7 8 9 9 9 10 11 11 13 13 14 15 15 14 14 14 14 13 14 14 14 14 14 14 14 14 14
11 13 19 20 20 21 13 15 14 10 10 9 9 9 9 9 7 7 8 8 8 8 8 8 9 9 10 10 11 12 12 13 14 14 14 14 15 15 15 14 14 14 14 14 14 14 15 15 15
12 13 18 22 22 20 14 18 14 10 10 9 10 10 9 9 7 7 8 8 8 8 8 8 9 10 10 11 11 12 12 13 13 13 13 14 14 14 14 14 14 14 14 14 14 14 15 14 15
13 15 11 16 16 20 17 14 11 10 10 10 10 10 10 10 9 9 8 8 9 9 9 9 9 10 10 10 12 12 11 12 13 12 13 13 13 13 14 14 14 15 15 15 15 15 15 15 15
11 10 16 16 22 23 19 18 17 14 12 12 12 10 10 10 10 10 9 9 9 9 9 9 9 9 10 10 11 12 12 12 12 12 13 13 13 14 15 15 15 15 15 15 15 15 15 15 15
13 15 14 14 17 21 22 19 13 13 12 12 12 11 10 10 10 10 10 9 9 10 10 10 10 10 11 11 12 13 13 12 12 13 13 13 13 14 14 15 15 15 15 15 15 15 15 15 16
11 13 14 18 19 17 18 18 11 11 11 11 11 11 10 9 9 9 9 10 10 10 9 10 10 12 12 12 13 12 13 12 12 12 13 13 14 13 14 14 15 15 15 15 15 15 15 16 16

GFSSGP_con_lsi_189.txt.gz
Lid_Strength_Index
2 5 5 6 9 10 12 11 9 10 9 6 6 7 8 7 9 10 2 2 0 0 -1 -1 -1 -1 -1 -1 -1 -1 -2 -1 -1 -1 -1 -1 -1 -1 -1 -1 -2 -2 -2 -2 -2 -2 -2 -2 -2
4 5 5 8 11 13 12 11 10 8 6 6 6 6 7 8 5 4 3 1 -0 -0 -1 -1 -1 -1 -1 -1 -1 -1 -1 -1 -1 -1 -1 -1 -1 -1 -2 -2 -1 -2 -2 -1 -1 -1 -1 -2 -1
5 6 7 9 12 13 12 11 9 7 5 5 6 5 6 7 4 3 1 0 -0 -0 -1 -1 -1 -1 -1 -1 -1 -1 -1 -1 -1 -1 -1 -1 -1 -1 -2 -1 -1 -1 -1 -1 -1 -1 -1 -1 -1
6 7 9 11 12 11 11 10 9 8 7 6 6 6 5 3 3 2 0 0 0 -0 -1 -1 -0 -1 -1 -1 -1 -1 -1 -1 -1 -1 -1 -1 -1 -2 -1 -0 -0 -0 -1 -1 -0 -0 -1 -1 -0
7 8 11 12 12 11 10 9 8 8 8 7 5 7 7 3 1 1 1 1 1 0 -0 -1 -0 -1 -1 -1 -1 -1 -1 -1 -1 -1 -1 -0 -1 -1 0 1 1 0 0 0 0 -0 -0 -0 0
9 8 12 13 12 10 9 8 8 8 8 6 7 7 6 2 2 1 1 1 1 1 0 -0 -1 -1 -1 -1 -1 -1 -1 -1 -0 -0 0 -1 -0 0 1 1 1 1 1 1 0 0 0 1 1
9 10 12 12 12 11 9 7 8 8 8 6 5 8 6 4 2 1 1 1 1 1 0 0 -0 -1 -1 -1 -1 -1 -0 0 0 0 -0 1 0 1 2 1 1 1 1 1 1 1 1 1 2
8 9 12 12 12 11 8 8 7 8 6 4 4 7 7 4 1 1 2 2 2 1 1 -0 0 -0 -0 -0 -0 0 0 0 1 1 1 0 1 2 2 2 2 2 1 1 2 2 2 2 3
9 10 12 11 12 10 8 9 7 4 5 5 4 5 4 2 2 2 3 3 3 2 2 1 1 2 1 1 1 1 1 1 1 2 1 3 3 3 3 3 3 2 2 2 3 3 4 4 4
9 11 10 9 9 9 8 8 7 6 6 6 6 4 3 3 3 4 4 5 3 3 3 3 3 4 3 2 1 1 1 1 2 3 4 4 3 3 4 3 3 3 3 3 4 4 5 6 5
9 10 8 8 8 8 8 8 7 7 8 6 5 5 4 4 4 4 4 4 3 3 4 4 5 5 3 3 3 3 4 4 5 5 5 4 4 5 5 5 5 5 6 6 6 6 6 5 5
10 9 8 7 7 7 7 7 8 8 6 4 4 4 4 5 4 4 4 3 3 3 4 5 5 4 5 5 5 5 5 6 7 6 5 6 6 7 7 6 6 6 6 6 6 6 6 6 6
9 8 7 7 7 7 7 8 7 8 5 5 4 4 5 4 4 3 3 3 3 4 4 5 5 4 5 5 6 6 6 7 7 7 6 6 6 7 6 6 6 7 7 7 7 7 7 7 6
7 7 7 6 6 7 7 6 7 6 5 6 5 5 4 4 4 3 3 3 3 3 4 5 5 4 5 6 7 7 6 7 7 6 7 6 6 6 6 6 7 7 7 7 7 8 7 7 6
7 9 7 7 7 7 7 9 9 6 6 6 5 5 5 4 4 4 3 3 3 3 4 5 5 5 5 6 6 7 6 7 7 6 6 6 6 6 6 7 7 7 7 7 8 8 7 7 7
9 9 12 8 8 8 8 11 7 6 7 6 5 5 5 4 4 3 2 2 2 3 4 4 5 6 6 6 7 7 7 7 7 7 6 6 6 6 6 7 7 8 8 8 9 8 8 7 8
10 13 12 10 7 7 9 10 7 8 7 7 6 5 5 5 4 3 2 2 2 2 3 4 5 6 6 7 7 7 7 8 7 6 6 7 7 7 7 8 8 8 9 9 9 9 8 8 8
13 13 12 12 9 9 9 10 8 7 7 7 6 6 5 5 5 3 3 2 2 2 3 4 6 6 7 7 7 7 8 8 8 7 7 7 8 8 8 8 9 9 10 10 10 9 8 8 8
10 11 12 10 9 9 10 10 8 7 7 7 7 6 6 5 4 3 3 2 3 3 4 4 6 7 7 8 8 8 9 9 9 8 8 8 8 8 8 9 9 9 10 10 10 9 8 9 8
11 12 12 10 8 9 10 10 8 8 7 6 7 6 6 5 4 4 3 3 3 4 4 4 6 7 7 7 7 7 9 10 9 9 9 9 8 8 9 9 9 9 10 10 10 9 10 10 9
11 13 12 12 10 9 10 12 10 7 7 6 6 6 6 5 5 4 4 4 3 4 4 4 5 7 6 7 7 8 10 10 11 11 10 10 9 9 9 9 10 11 10 11 10 10 10 11 11
14 10 10 11 13 16 10 17 11 9 8 8 7 6 6 6 4 4 4 4 4 3 3 4 5 6 7 7 9 10 9 11 11 10 10 10 10 10 10 11 10 10 11 11 11 11 10 9 11
12 9 11 11 13 13 13 16 12 9 10 8 7 6 6 7 6 5 4 4 4 3 3 4 5 6 6 8 8 9 8 10 11 11 12 11 11 11 11 11 11 11 11 11 11 11 10 10 10
8 10 11 11 13 19 14 15 14 11 10 9 8 8 8 8 7 5 4 4 4 4 4 4 5 6 6 8 8 7 8 11 11 13 13 12 12 12 12 12 12 12 11 11 11 11 10 10 10
10 13 19 21 20 21 13 15 13 10 10 10 10 10 9 8 8 6 5 5 5 5 4 5 6 7 7 8 9 7 8 10 10 12 12 12 12 12 13 12 12 12 11 12 12 11 10 10 9
12 13 18 22 21 18 13 17 13 11 10 10 10 9 9 8 8 7 5 5 5 5 5 5 6 7 8 7 8 8 9 9 9 12 12 11 12 12 12 12 12 13 13 12 11 11 11 10 10
12 15 11 16 16 19 16 13 11 11 11 11 11 10 9 9 8 8 7 6 6 5 5 5 6 6 8 7 8 8 9 9 11 12 11 11 11 12 12 12 13 13 13 12 11 11 11 11 10
10 9 16 16 22 23 18 16 15 13 12 11 11 10 10 8 8 8 7 6 6 5 5 5 5 6 7 8 8 10 10 11 12 12 12 12 12 13 13 12 13 12 12 12 11 11 11 12 12
13 14 14 13 16 20 20 18 12 12 12 11 11 10 9 8 8 8 7 7 6 6 6 6 6 7 8 8 8 10 11 11 12 13 13 13 13 13 13 13 13 12 12 11 11 11 12 12 12
10 12 13 18 19 17 17 17 11 11 10 10 9 9 9 8 8 8 7 7 7 7 6 7 6 7 7 8 9 10 10 11 13 13 13 13 13 13 13 13 13 12 12 12 12 13 13 13 14

GFSSGP_con_lsi_192.txt.gz
Lid_Strength_Index
2 3 3 4 8 8 9 9 7 7 7 5 4 6 6 6 7 9 1 0 -0 -0 -1 -1 -1 -1 -1 -1 -1 -1 -1 -1 -1 -1 -2 -2 -2 -1 -1 -1 -1 -1 -2 -2 -2 -2 -2 -2 -2
3 4 3 4 9 10 9 7 8 7 5 4 5 5 6 6 4 4 3 0 -0 -0 -1 -1 -1 -1 -1 -1 -1 -1 -1 -1 -1 -1 -1 -1 -1 -1 -1 -1 -2 -2 -2 -2 -2 -1 -1 -1 -2
3 3 5 7 8 9 8 8 7 6 5 4 6 4 5 5 4 3 1 -0 -0 -0 -1 -1 -1 -1 -1 -1 -1 -1 -1 -1 -1 -1 -1 -1 -1 -1 -2 -2 -2 -1 -2 -2 -1 -1 -1 -1 -1
5 5 5 9 9 7 8 7 7 7 6 6 4 6 4 2 3 1 0 -0 0 -0 -1 -0 -0 -1 -1 -1 -1 -1 -1 -1 -1 -1 -1 -1 -1 -1 -2 -2 -2 -1 -1 -1 -1 -0 0 -1 -1
4 5 8 9 8 7 6 6 6 7 6 6 5 5 5 3 1 1 0 0 0 -0 -1 -1 -0 -1 -1 -1 -1 -1 -1 -1 -1 -1 -1 -1 -1 -1 -1 -2 -1 -0 -0 -0 0 1 -0 0 0
6 6 9 10 8 7 6 6 6 6 6 6 5 5 5 2 2 1 1 0 -0 0 -1 -1 -1 -1 -1 -1 -1 -1 -1 -1 -1 -1 -1 -0 -0 -1 -1 -0 -0 1 1 1 1 0 0 1 1
7 8 9 8 8 7 6 5 6 6 6 6 4 6 5 3 1 1 1 0 -0 -0 -0 -1 -1 -1 -1 -1 -0 -0 -1 -1 -1 -0 -0 -0 -1 -1 -0 0 1 1 1 2 1 0 1 1 2
6 7 9 8 9 8 6 6 6 6 6 3 3 6 5 3 1 1 1 1 0 -0 -0 -0 -1 -1 -1 -0 -0 -0 -0 0 -0 -0 -0 -1 -0 -1 0 1 2 2 2 2 1 1 1 2 3
5 8 10 8 8 7 6 7 5 4 4 4 3 3 3 2 1 2 2 2 1 1 0 -0 -0 -0 -0 0 1 -0 1 1 0 1 -0 0 -0 1 1 1 2 2 3 2 2 2 2 3 3
6 9 9 6 6 7 6 6 5 5 5 4 4 3 2 2 2 3 3 3 3 2 1 0 -0 1 1 2 0 -0 -0 1 1 0 1 0 1 2 2 2 3 3 3 3 3 4 4 4 3
6 8 6 6 5 5 6 6 4 6 6 4 4 3 3 3 3 3 3 3 2 2 1 0 -0 -0 1 2 1 -0 1 1 1 0 1 1 2 3 3 3 4 3 3 4 4 4 4 3 3
8 6 6 6 5 6 6 5 5 5 5 3 3 2 3 3 3 3 3 3 2 2 1 1 1 1 2 1 0 1 1 2 2 3 2 2 3 3 4 5 5 4 3 3 3 4 3 3 3
7 6 6 5 5 5 5 6 6 5 4 3 3 2 3 3 3 2 2 2 2 2 1 2 2 2 2 1 1 2 2 3 3 3 3 4 5 4 4 5 5 4 4 4 4 4 4 3 3
5 6 6 5 5 5 6 6 5 5 3 3 3 3 3 3 2 2 2 2 2 2 2 2 3 2 3 1 2 3 3 3 4 4 4 4 4 4 4 5 5 4 4 4 4 4 4 4 4
5 8 6 6 5 6 5 7 7 4 3 4 4 3 3 2 2 2 2 2 2 2 1 3 3 2 2 2 3 4 4 4 5 5 4 4 4 3 3 4 4 4 4 4 5 4 4 4 5
8 8 11 7 6 6 6 9 5 4 4 4 4 3 3 3 3 2 2 2 1 2 2 2 3 3 3 2 4 5 4 4 4 5 4 4 4 3 3 4 4 4 5 5 5 5 5 5 5
9 12 10 9 6 6 7 9 5 4 5 5 4 4 3 3 3 2 2 1 1 1 2 2 2 3 3 3 4 4 4 4 5 5 4 3 4 4 3 4 4 5 5 6 6 5 5 6 6
11 11 10 10 7 7 8 8 6 5 5 5 4 4 4 3 3 2 2 1 1 1 1 2 3 3 3 4 4 5 5 4 4 5 4 4 4 4 4 5 5 5 6 6 6 5 5 7 7
8 9 10 8 6 8 9 8 7 5 5 5 5 5 4 4 2 2 2 1 1 1 2 1 2 2 3 4 6 6 6 5 5 5 5 4 4 4 5 6 6 6 7 7 6 6 6 7 7
9 11 11 8 7 8 9 9 7 6 6 5 5 5 4 4 3 2 2 2 2 2 2 2 1 2 3 3 5 6 6 6 5 5 5 5 5 5 6 7 7 7 8 8 7 6 7 7 7
10 11 11 11 8 7 9 11 9 6 5 5 5 4 4 4 4 3 3 3 2 2 2 2 1 2 2 3 5 6 5 5 6 6 6 6 6 6 7 7 7 8 8 9 8 8 8 8 7
12 8 9 10 11 14 8 15 10 7 7 6 5 5 4 4 3 3 3 3 3 2 1 1 1 1 3 2 5 6 7 8 7 6 6 7 7 7 7 7 9 8 9 9 9 9 8 8 10
11 8 9 10 11 12 12 15 11 8 9 7 6 5 4 4 3 3 3 3 2 2 2 1 1 1 2 4 4 6 7 6 6 7 7 7 7 7 8 9 9 8 9 9 10 9 9 9 9
8 9 10 11 12 19 13 14 13 10 8 7 6 6 6 5 4 4 3 2 2 2 2 2 2 1 2 4 4 5 6 6 7 7 8 8 8 9 9 9 9 9 9 10 10 9 9 9 9
9 13 19 20 20 20 11 14 12 8 7 7 7 7 6 5 5 4 3 3 2 2 2 2 2 3 2 3 4 6 5 5 7 7 7 8 9 9 10 9 8 9 9 9 10 9 10 10 9
11 12 18 22 21 18 12 16 12 8 7 6 7 6 6 6 5 4 4 3 3 2 2 2 3 3 4 4 4 5 5 6 6 7 7 8 9 9 9 9 9 10 9 10 9 10 10 8 8
11 15 10 15 14 18 14 12 9 8 9 8 7 7 6 6 5 5 4 3 3 3 2 2 3 4 4 5 5 5 5 6 6 6 7 9 9 9 8 9 9 9 10 10 10 10 10 9 8
10 8 16 16 22 23 16 14 13 11 10 9 8 8 7 6 5 5 4 4 3 3 2 2 3 3 4 5 5 6 6 6 6 7 9 10 11 11 10 10 10 11 11 11 11 10 10 9 8
12 13 13 13 16 20 20 16 8 9 9 9 8 7 7 6 5 5 5 4 4 3 3 2 3 3 3 4 4 6 7 7 7 9 10 12 12 11 11 12 12 12 12 11 10 10 10 10 9
10 12 12 17 18 16 17 17 8 8 8 7 7 6 6 6 6 5 5 5 4 4 4 3 3 3 3 4 4 5 6 10 12 12 12 13 13 12 12 13 13 12 12 11 11 11 11 11 11

GFSSGP_con_lsi_195.txt.gz
Lid_Strength_Index
1 2 2 4 8 7 9 7 6 7 6 4 4 5 6 5 7 9 1 0 -0 0 -1 -1 -1 -1 -1 -1 -1 -1 -1 -1 -1 -1 -1 -1 -2 -2 -1 -1 -1 -1 -1 -1 -2 -2 -2 -2 -1
2 2 3 5 9 9 8 6 7 6 5 4 4 4 5 6 4 3 3 0 -0 0 -1 -1 -1 -1 -1 -1 -1 -1 -1 -1 -1 -1 -1 -1 -1 -1 -1 -1 -1 -2 -2 -2 -2 -2 -1 -1 -1
1 3 5 7 8 9 8 7 6 5 4 4 5 4 4 5 3 2 1 0 -0 0 -1 -1 -0 -1 -1 -1 -1 -1 -1 -1 -1 -1 -1 -1 -1 -1 -1 -1 -2 -2 -2 -1 -2 -1 -1 -0 0
4 4 5 8 9 7 6 6 6 5 5 5 5 5 3 2 3 1 0 -0 0 0 -1 -1 -0 -0 -1 -1 -1 -1 -1 -1 -1 -1 -1 -1 -1 -1 -1 -2 -2 -2 -2 -1 -1 -0 0 1 0
4 5 8 9 8 6 5 5 4 6 6 5 5 5 4 2 1 1 0 0 1 0 -0 -1 -0 -0 -1 -1 -1 -1 -1 -1 -1 -1 -1 -1 -1 -1 -1 -2 -2 -2 -1 0 0 0 1 1 0
6 5 9 9 8 6 5 4 4 6 5 5 6 5 4 2 2 1 0 0 0 0 -0 -1 -1 -1 -0 -1 -1 -1 -1 -1 -1 -1 -1 -1 -1 -1 -1 -2 -2 -1 -0 1 1 1 1 1 1
7 7 9 8 8 7 5 4 5 5 5 6 4 5 4 3 1 1 0 0 0 -0 -0 -1 -1 -1 -0 -0 -0 -0 -1 -1 -1 -1 -1 -1 -1 -1 -1 -2 -1 0 1 1 1 2 1 1 2
5 6 8 8 8 7 5 5 5 6 6 4 3 5 5 3 1 1 1 1 1 0 -0 -0 -1 -1 -1 -0 0 -0 -0 -0 -0 -0 -0 -0 -0 -1 -1 -0 -0 1 2 1 2 2 1 2 2
4 8 10 8 7 6 4 6 5 4 5 4 3 3 3 2 1 2 2 2 2 1 0 0 -0 -0 -0 -0 0 0 0 0 0 0 -0 0 -0 -0 -1 -0 1 2 2 2 2 2 2 2 3
6 8 8 6 6 6 5 5 5 5 5 5 4 2 2 2 2 3 3 4 3 2 1 0 0 -0 -0 0 0 0 1 0 0 0 1 0 -0 -0 -1 1 2 3 3 3 3 2 2 2 3
5 8 6 5 5 5 5 5 4 5 6 4 4 3 3 3 3 3 3 3 3 2 1 0 0 -0 0 0 0 0 0 -0 0 0 -0 -1 0 0 1 2 3 3 4 5 4 3 2 3 2
7 5 5 5 5 5 6 5 5 5 5 3 3 2 3 3 3 3 3 2 2 2 1 1 0 0 0 1 1 0 -0 0 1 1 -1 -0 1 1 2 4 4 4 4 4 3 3 2 2 2
6 6 5 4 5 5 5 5 5 5 4 3 3 3 3 3 3 2 2 2 2 2 2 1 0 0 0 0 1 -0 -0 0 0 1 0 1 2 2 3 4 4 4 4 4 3 3 2 2 2
6 6 6 5 5 5 6 5 5 5 3 4 3 3 3 2 2 2 2 2 2 2 2 1 1 0 -0 0 1 -0 -0 0 1 2 2 1 2 2 4 4 4 4 4 4 3 3 3 3 3
5 8 7 6 6 6 5 7 7 4 3 4 4 3 3 2 2 2 2 2 2 1 1 1 1 0 0 1 2 0 1 2 2 3 1 2 2 3 3 4 4 4 4 3 3 3 3 3 4
8 8 11 7 6 5 6 10 6 4 4 4 4 3 3 3 2 2 1 1 1 1 2 1 1 1 1 1 2 1 1 2 3 3 3 3 3 3 3 4 4 4 4 4 3 3 4 4 4
9 12 10 9 5 6 6 9 6 4 4 4 4 4 3 3 2 2 1 1 1 1 2 2 1 1 1 1 3 2 1 3 3 3 4 4 4 3 4 4 3 3 5 5 3 3 4 4 5
12 11 10 10 7 6 7 8 6 5 5 5 4 4 4 3 3 2 2 1 1 1 1 1 1 1 1 2 3 3 3 3 2 3 4 3 4 3 3 4 4 3 5 5 4 3 4 4 5
9 10 10 8 6 7 8 8 6 5 5 5 5 4 4 4 2 2 2 1 1 1 2 2 2 2 2 3 4 5 4 4 3 3 3 3 4 3 2 4 4 3 4 4 3 4 4 6 5
9 10 11 8 7 7 8 8 6 6 5 5 5 4 4 4 3 2 2 2 2 2 2 2 2 2 2 3 3 3 4 4 3 3 3 3 4 3 3 3 4 4 5 6 5 5 6 7 6
9 11 11 10 8 7 8 10 8 6 5 5 4 4 4 4 4 3 3 2 2 2 2 2 2 2 2 2 3 4 4 3 4 3 4 4 4 4 4 4 5 5 5 6 5 6 6 7 7
13 8 9 10 11 14 9 15 10 8 7 6 5 4 4 4 3 3 3 2 2 2 2 2 2 2 2 2 3 3 4 6 5 4 4 4 4 5 4 5 5 5 6 6 6 6 6 6 8
11 8 9 10 12 12 11 14 11 8 8 7 5 5 4 3 3 3 3 2 2 2 2 2 1 2 1 1 1 2 4 4 3 4 4 4 4 5 6 5 5 6 6 6 6 6 6 6 8
8 9 10 11 13 18 13 13 12 10 8 7 5 5 4 4 4 3 2 2 2 2 2 2 2 2 1 1 1 2 3 4 4 5 5 6 6 6 5 6 6 7 7 7 7 7 7 7 7
9 12 19 20 21 21 11 14 12 8 7 6 6 5 5 4 4 3 3 3 2 2 2 2 2 2 2 2 1 1 2 3 4 5 6 6 7 6 6 7 6 7 7 7 8 8 8 8 7
11 12 18 21 20 18 12 16 11 7 6 5 5 5 5 5 4 4 3 3 2 2 2 2 3 3 2 3 2 2 2 4 5 5 6 6 6 6 6 7 7 8 8 9 7 8 8 8 8
12 14 10 15 14 17 15 11 8 7 7 7 6 6 6 5 4 4 3 3 3 2 2 2 3 3 2 2 3 3 3 4 5 6 5 6 6 7 7 7 8 8 9 9 9 9 9 8 8
10 8 16 15 22 23 17 14 13 9 8 8 7 7 6 5 4 4 3 3 3 2 2 2 2 3 2 3 3 4 4 5 5 6 7 8 8 7 8 8 9 9 10 10 9 9 9 9 10
13 14 12 14 17 21 20 17 9 9 8 8 7 6 6 5 5 4 4 3 3 2 2 3 2 3 3 4 4 5 6 6 7 7 8 8 9 8 9 10 10 11 11 10 10 10 10 11 11
11 14 14 18 18 17 18 16 8 8 7 7 7 6 5 5 4 4 4 3 3 3 2 3 3 3 3 4 5 5 6 7 9 9 10 10 11 10 10 11 12 12 12 11 10 12 12 12 11